Location: Geroldsau
(48.7259°N, 8.2466°E)
Time: 08:22:38
(UTC+00:00)

Cosmos 1633 - Pass Details

Date: 20 June 2021
Orbit: 461 x 476 km, 82.5° (Epoch: 26 July)

Event Time Altitude Azimuth Distance (km) Brightness Sun altitude
Exits shadow 00:52:58 22° 152° (SSE) 1,069 3.9 -15.4°
Maximum altitude 00:54:50 41° 94° (E) 686 3.4 -15.3°
Drops below altitude 10° 00:58:11 10° 23° (NNE) 1,626 6.6 -15.1°
Sets 01:00:21 0° 16° (NNE) 2,509 8.1 -15.0°
